User: anonymous   Login
Location: Arrodets-la-Barthe
(43.0306°N, 0.2829°E)
Time: 15:58:03
(UTC+00:00)
Language:

Cosmos 1447 Rocket - Orbit

View from above orbital plane
View from above orbital plane
View from above satellite
View from above satellite

Ground track
Ground track

The orbit data is extracted from the following two-line orbital elements,

1 13917U 83021B   22021.89043166  .00000012  00000-0 -34010-5 0  9996
2 13917  82.9414  78.7649 0027560 227.8670 305.6637 13.76887491950462
Epoch (UTC): 21 January 2022 21:22:13
Eccentricity: 0.0027560
inclination: 82.9414°
perigee height: 954 km
apogee height: 995 km
right ascension of ascending node: 78.7649°
argument of perigee: 227.8670°
revolutions per day: 13.76887491
mean anomaly at epoch: 305.6637°
orbit number at epoch: 95046

The dashed part of the orbit path shows where the satellite is in the earth's shadow,  

DLR